Location: Newark
(45.8667°N, 9.7333°E)
Time: 12:41:31
(UTC+00:00)

ITAMSAT 1 - Pass Details

Date: 27 February 2020
Orbit: 784 x 796 km, 98.9° (Epoch: 05 April)

Event Time Altitude Azimuth Distance (km) Brightness Sun altitude
Rises 03:52:52 0° 29° (NNE) 3,309 11.5 -23.6°
Reaches altitude 10° 03:56:00 10° 49° (NE) 2,374 11.0 -23.1°
Maximum altitude 03:59:27 18° 91° (E) 1,892 10.5 -22.5°
Drops below altitude 10° 04:02:54 10° 132° (SE) 2,363 10.6 -21.9°
Sets 04:05:59 0° 152° (SSE) 3,287 11.1 -21.4°
